Regional Weather Roundup
Issued by NWS

Home | Current Version | Previous Version | Text Only | Print | Product List | Glossary On
Versions: 1 2 3 4 5 6 7 8 9 10 11 12 13 14 15 16 17 18 19 20 21 22 23 24 25 26 27 28 29 30 31 32 33 34 35 36 37 38 39 40 41 42 43 44 45 46 47 48 49 50
087
ASUS43 KOAX 312202
RWRNE

WEATHER ROUNDUP FOR NEBRASKA
NATIONAL WEATHER SERVICE OMAHA NE
500 PM CDT WED AUG 31 2016

NOTES: SATELLITE DATA IS BEING USED TO AUGMENT CLOUD COVER ABOVE
       12000 FEET.
       "FAIR" INDICATES FEW OR NO CLOUDS BELOW 12,000 FEET WITH NO
       SIGNIFICANT WEATHER AND/OR OBSTRUCTIONS TO VISIBILITY.

  * THESE STATIONS DO NOT REPORT WEATHER SUCH AS RAIN...SNOW OR FOG.

NEZ001>004-019>022-054>056-312300-
NEBRASKA PANHANDLE

CITY           SKY/WX    TMP DP  RH WIND       PRES   REMARKS
SCOTTSBLUFF    SUNNY     81  58  45 E17       30.19F
ALLIANCE       PTSUNNY   81  57  43 SE16G24   30.20F
CHADRON        SUNNY     84  51  31 S13       30.16F
KIMBALL        PTSUNNY   76  57  50 SE8       30.24F
SIDNEY         SUNNY     77  59  53 SE13      30.23F
$$

NEZ057>060-069>072-079>082-312300-
SOUTHWEST NEBRASKA

CITY           SKY/WX    TMP DP  RH WIND       PRES   REMARKS
NORTH PLATTE   SUNNY     81  59  47 SE13      30.19F
IMPERIAL       CLOUDY    73  64  73 E7        30.21F
LEXINGTON      MOSUNNY   80  61  51 SE9       30.18F
MCCOOK         CLOUDY    76  64  66 E10       30.18F
OGALLALA       SUNNY     79  62  56 S9        30.20S
$$

NEZ005>010-023>029-035>040-094-312300-
NORTH CENTRAL NEBRASKA

CITY           SKY/WX    TMP DP  RH WIND       PRES   REMARKS
VALENTINE      MOSUNNY   83  57  41 SE8       30.19F
AINSWORTH      SUNNY     82  61  49 SE8       30.21S
BROKEN BOW     MOSUNNY   80  61  52 SE10      30.19F
O`NEILL        MOSUNNY   84  50  31 SE12      30.19F
ORD            SUNNY     83  56  39 E6        30.17F
THEDFORD       MOSUNNY   83  57  40 SE7       30.21S
$$

NEZ041-046>049-061>064-073>077-083>087-312300-
SOUTH CENTRAL NEBRASKA

CITY           SKY/WX    TMP DP  RH WIND       PRES   REMARKS
GRAND ISLAND   SUNNY     82  52  35 NE12      30.18S
AURORA         SUNNY     80  58  47 NE7       30.17F
HASTINGS       SUNNY     81  61  50 E10       30.18F
HEBRON         CLOUDY    79  60  51 E6        30.15S
HOLDREGE       SUNNY     78  58  49 SE10      30.18F
KEARNEY *      MOSUNNY  N/A N/A N/A SE8       30.16F
YORK           SUNNY     79  55  44 NE13      30.17S
$$

NEZ011>018-030>034-042>045-312300-
NORTHEAST NEBRASKA

CITY           SKY/WX    TMP DP  RH WIND       PRES   REMARKS
NORFOLK        SUNNY     80  55  42 E10       30.17F
ALBION         SUNNY     80  57  45 E8        30.18F
BLAIR          SUNNY     79  59  50 NE8       30.16S
FREMONT        SUNNY     79  60  52 NE8       30.16S
TEKAMAH        SUNNY     80  58  46 NE8       30.15F
WAYNE          SUNNY     78  64  62 NE6       30.19S
$$

NEZ050>053-065>068-078-088>093-312300-
SOUTHEAST NEBRASKA

CITY           SKY/WX    TMP DP  RH WIND       PRES   REMARKS
LINCOLN        MOSUNNY   82  61  48 NE10      30.15F
OMAHA EPPLEY   PTSUNNY   81  59  47 N9        30.14F
BEATRICE       CLOUDY    77  58  50 E7        30.14S
FALLS CITY     CLOUDY    78  62  57 NE6       30.11S
NEBRASKA CITY  PTSUNNY   78  56  47 NE8       30.14S
PLATTSMOUTH    MOSUNNY   80  60  50 NE9       30.14S
$$

NEZ044-045-051>053-067-312300-
OMAHA AREA

CITY           SKY/WX    TMP DP  RH WIND       PRES   REMARKS
OMAHA EPPLEY   PTSUNNY   81  59  47 N9        30.14F
BLAIR          SUNNY     79  59  50 NE8       30.16S
FREMONT        SUNNY     79  60  52 NE8       30.16S
MILLARD        SUNNY    N/A N/A N/A NE3       30.14S
OFFUTT AFB     SUNNY     79  60  51 N7        30.13F
PLATTSMOUTH    MOSUNNY   80  60  50 NE9       30.14S
WAHOO          FAIR      78  62  57 N7        30.15F
$$




USA.gov is the U.S. government's official web portal to all federal, state and local government web resources and services.